User: anonymous   Login
Location: Grasslands National Park East Block
(49.0708°N, 106.5295°W)
Time: 21:45:12
(UTC-06:00)
Language:

Vanguard 1 Rocket - Orbit

View from above orbital plane
View from above orbital plane
View from above satellite
View from above satellite

Ground track
Ground track

The orbit data is extracted from the following two-line orbital elements,

1    16U 58002A   19262.20239069 -.00000078  00000-0 -11343-3 0  9995
2    16  34.2609 220.7433 2026471 169.8786 194.9880 10.48742333430248
Epoch (UTC): 19 September 2019 04:51:26
Eccentricity: 0.2026471
inclination: 34.2609°
perigee height: 651 km
apogee height: 4225 km
right ascension of ascending node: 220.7433°
argument of perigee: 169.8786°
revolutions per day: 10.48742333
mean anomaly at epoch: 194.9880°
orbit number at epoch: 43024

The dashed part of the orbit path shows where the satellite is in the earth's shadow,  

DLR